K4GZX-11 Weather Reports


Display with metric or nautical units.
time (UTC)temp
F
wind
direction
speed
MPH
gust
MPH
rain 1hr
in
rain 24hr
in
rain mn
in
humidity
%
barometer
mb
20260903193010 101 103 0.0 0.0 0.00 0.00 0.00 40 1016.3
20260903192518 101 103 0.0 0.0 0.00 0.00 0.00 38 1016.2
20260903192025 101 103 0.0 0.0 0.00 0.00 0.00 39 1016.4
20260903191509 101 103 0.0 0.0 0.00 0.00 0.00 38 1016.4
20260903191004 101 103 0.0 0.0 0.00 0.00 0.00 39 1016.4
20260903190500 101 103 0.0 0.0 0.00 0.00 0.00 40 1016.5
20260903185943 100 103 0.0 0.0 0.00 0.00 0.00 40 1016.5
20260903185425 100 103 0.0 0.0 0.00 0.00 0.00 42 1016.5
20260903184856 99 103 0.0 0.0 0.00 0.00 0.00 44 1016.7
20260903184404 99 103 0.0 0.0 0.00 0.00 0.00 42 1016.8
20260903183911 99 103 0.0 0.0 0.00 0.00 0.00 41 1016.9
20260903183407 100 103 0.0 0.0 0.00 0.00 0.00 43 1016.9
20260903182914 99 103 0.0 0.0 0.00 0.00 0.00 43 1016.9
20260903182345 99 103 0.0 5.0 0.00 0.00 0.00 44 1017.1
20260903181845 98 103 0.0 5.0 0.00 0.00 0.00 45 1017.0
20260903181350 97 103 0.0 0.0 0.00 0.00 0.00 47 1017.1
20260903180857 97 103 0.0 0.0 0.00 0.00 0.00 46 1017.2
20260903180345 97 103 0.0 0.0 0.00 0.00 0.00 45 1017.2
20260903175845 97 103 0.0 0.0 0.00 0.00 0.00 46 1017.3
20260903175345 98 103 0.0 0.0 0.00 0.00 0.00 44 1017.2
20260903174845 98 103 0.0 0.0 0.00 0.00 0.00 44 1017.2
20260903174345 98 103 0.0 0.0 0.00 0.00 0.00 43 1017.3
20260903173845 97 103 0.0 0.0 0.00 0.00 0.00 46 1017.2
20260903173345 96 103 0.0 0.0 0.00 0.00 0.00 45 1017.3
20260903172845 96 103 0.0 0.0 0.00 0.00 0.00 46 1017.4
20260903172345 96 103 0.0 0.0 0.00 0.00 0.00 47 1017.4
20260903171850 95 103 0.0 0.0 0.00 0.00 0.00 48 1017.5
20260903171357 95 103 0.0 0.0 0.00 0.00 0.00 48 1017.6
20260903170845 95 103 0.0 0.0 0.00 0.00 0.00 49 1017.6
20260903170345 95 103 0.0 0.0 0.00 0.00 0.00 49 1017.7
20260903165845 95 103 0.0 0.0 0.00 0.00 0.00 50 1017.8
20260903165345 94 103 0.0 0.0 0.00 0.00 0.00 50 1017.9
20260903164847 95 103 0.0 0.0 0.00 0.00 0.00 49 1018.0
20260903164355 95 103 0.0 0.0 0.00 0.00 0.00 49 1018.0
20260903163902 96 103 0.0 0.0 0.00 0.00 0.00 48 1018.1
20260903163409 96 103 0.0 0.0 0.00 0.00 0.00 49 1018.1
20260903162845 96 103 0.0 0.0 0.00 0.00 0.00 48 1018.2
20260903162345 96 103 0.0 0.0 0.00 0.00 0.00 47 1018.2
20260903161845 95 103 0.0 0.0 0.00 0.00 0.00 49 1018.2
20260903161345 95 103 0.0 0.0 0.00 0.00 0.00 51 1018.3
20260903160847 94 103 0.0 0.0 0.00 0.00 0.00 53 1018.4
20260903160345 94 103 0.0 0.0 0.00 0.00 0.00 52 1018.4
20260903155845 94 103 0.0 0.0 0.00 0.00 0.00 53 1018.4
20260903155350 93 103 0.0 0.0 0.00 0.00 0.00 53 1018.4
20260903154857 93 103 0.0 0.0 0.00 0.00 0.00 54 1018.5
20260903154345 92 103 0.0 0.0 0.00 0.00 0.00 54 1018.5
20260903153845 92 103 0.0 0.0 0.00 0.00 0.00 55 1018.5
20260903153345 92 103 0.0 0.0 0.00 0.00 0.00 55 1018.6
20260903152849 91 103 0.0 0.0 0.00 0.00 0.00 55 1018.7
20260903152357 91 103 0.0 0.0 0.00 0.00 0.00 57 1018.6
20260903151851 90 103 0.0 0.0 0.00 0.00 0.00 59 1018.6
20260903151359 89 103 0.0 0.0 0.00 0.00 0.00 61 1018.6
20260903150906 89 103 0.0 0.0 0.00 0.00 0.00 62 1018.5
20260903150414 88 103 0.0 0.0 0.00 0.00 0.00 65 1018.5
20260903145921 87 103 0.0 0.0 0.00 0.00 0.00 66 1018.5
20260903145345 86 103 0.0 0.0 0.00 0.00 0.00 67 1018.5
20260903144845 85 103 0.0 0.0 0.00 0.00 0.00 69 1018.4
20260903144345 85 103 0.0 0.0 0.00 0.00 0.00 70 1018.5
20260903143438 84 103 0.0 0.0 0.00 0.00 0.00 70 1018.4
20260903142945 83 103 0.0 0.0 0.00 0.00 0.00 72 1018.4
20260903142440 83 103 0.0 0.0 0.00 0.00 0.00 75 1018.5
20260903141921 82 103 0.0 0.0 0.00 0.00 0.00 76 1018.5
20260903141428 81 103 0.0 0.0 0.00 0.00 0.00 76 1018.4
20260903140916 81 103 0.0 0.0 0.00 0.00 0.00 80 1018.5
20260903140416 80 103 0.0 0.0 0.00 0.00 0.00 81 1018.5
20260903135916 79 103 0.0 0.0 0.00 0.00 0.00 82 1018.5
20260903135416 78 103 0.0 0.0 0.00 0.00 0.00 83 1018.5
20260903134916 78 103 0.0 0.0 0.00 0.00 0.00 83 1018.5
20260903134421 77 103 0.0 0.0 0.00 0.00 0.00 84 1018.6
20260903133928 77 103 0.0 0.0 0.00 0.00 0.00 85 1018.5
20260903133416 76 103 0.0 0.0 0.00 0.00 0.00 85 1018.6
20260903132916 76 103 0.0 0.0 0.00 0.00 0.00 85 1018.6
20260903132416 75 103 0.0 0.0 0.00 0.00 0.00 85 1018.6
20260903131916 75 103 0.0 0.0 0.00 0.00 0.00 86 1018.7
20260903131416 75 103 0.0 0.0 0.00 0.00 0.00 86 1018.7
20260903130921 75 103 0.0 0.0 0.00 0.00 0.00 86 1018.7
20260903130428 74 103 0.0 0.0 0.00 0.00 0.00 86 1018.7
20260903125916 74 103 0.0 0.0 0.00 0.00 0.00 86 1018.8
20260903125416 74 103 0.0 0.0 0.00 0.00 0.00 85 1018.8
20260903124921 74 103 0.0 0.0 0.00 0.00 0.00 85 1018.8
20260903124428 74 103 0.0 0.0 0.00 0.00 0.00 85 1018.8
20260903123916 74 103 0.0 0.0 0.00 0.00 0.00 85 1018.8
20260903123416 73 103 0.0 0.0 0.00 0.00 0.00 85 1018.9
20260903122916 73 103 0.0 0.0 0.00 0.00 0.00 85 1018.9
20260903122422 73 103 0.0 0.0 0.00 0.00 0.00 85 1018.9
20260903121930 73 103 0.0 0.0 0.00 0.00 0.00 85 1018.9
20260903121425 73 103 0.0 0.0 0.00 0.00 0.00 84 1018.9
20260903120933 73 103 0.0 0.0 0.00 0.00 0.00 84 1018.9
20260903120428 73 103 0.0 0.0 0.00 0.00 0.00 84 1018.9
20260903115916 73 103 0.0 0.0 0.00 0.00 0.00 83 1018.9
20260903115416 73 103 0.0 0.0 0.00 0.00 0.00 83 1018.9
20260903114916 73 103 0.0 0.0 0.00 0.00 0.00 83 1018.8
20260903114416 73 103 0.0 0.0 0.00 0.00 0.00 83 1018.7
20260903113916 73 103 0.0 0.0 0.00 0.00 0.00 83 1018.8
20260903113421 73 103 0.0 0.0 0.00 0.00 0.00 83 1018.6
20260903112928 73 103 0.0 0.0 0.00 0.00 0.00 83 1018.6
20260903112418 73 103 0.0 0.0 0.00 0.00 0.00 83 1018.6
20260903111925 73 103 0.0 0.0 0.00 0.00 0.00 83 1018.5
20260903111433 73 103 0.0 0.0 0.00 0.00 0.00 83 1018.4
20260903110940 73 103 0.0 0.0 0.00 0.00 0.00 83 1018.3
20260903110416 73 103 0.0 0.0 0.00 0.00 0.00 83 1018.3
20260903105916 73 103 0.0 0.0 0.00 0.00 0.00 83 1018.3
20260903105416 74 103 0.0 0.0 0.00 0.00 0.00 83 1018.3
20260903104916 74 103 0.0 0.0 0.00 0.00 0.00 83 1018.2
20260903104422 74 103 0.0 0.0 0.00 0.00 0.00 83 1018.1
20260903103929 74 103 0.0 0.0 0.00 0.00 0.00 83 1018.0
20260903103437 74 103 0.0 0.0 0.00 0.00 0.00 83 1018.0
20260903102944 74 103 0.0 0.0 0.00 0.00 0.00 83 1018.0
20260903102425 74 103 0.0 0.0 0.00 0.00 0.00 83 1017.9
20260903101933 74 103 0.0 0.0 0.00 0.00 0.00 83 1017.9
20260903101440 74 103 0.0 0.0 0.00 0.00 0.00 83 1017.9
20260903100916 74 103 0.0 0.0 0.00 0.00 0.00 83 1017.8
20260903100416 74 103 0.0 0.0 0.00 0.00 0.00 82 1017.9
20260903095916 74 103 0.0 0.0 0.00 0.00 0.00 82 1017.8
20260903095416 74 103 0.0 0.0 0.00 0.00 0.00 82 1017.9
20260903094916 74 103 0.0 0.0 0.00 0.00 0.00 82 1017.9
20260903094416 74 103 0.0 0.0 0.00 0.00 0.00 82 1017.9
20260903093916 74 103 0.0 0.0 0.00 0.00 0.00 82 1017.9
20260903093416 74 103 0.0 0.0 0.00 0.00 0.00 82 1017.9
20260903092916 75 103 0.0 0.0 0.00 0.00 0.00 82 1017.9
20260903092416 75 103 0.0 0.0 0.00 0.00 0.00 82 1017.9
20260903091845 75 103 0.0 0.0 0.00 0.00 0.00 81 1017.9
20260903091345 75 103 0.0 0.0 0.00 0.00 0.00 82 1017.9
20260903090845 75 103 0.0 0.0 0.00 0.00 0.00 82 1017.9
20260903090345 75 103 0.0 0.0 0.00 0.00 0.00 82 1017.8
20260903085845 75 103 0.0 0.0 0.00 0.00 0.00 81 1017.8
20260903085345 75 103 0.0 0.0 0.00 0.00 0.00 81 1017.8
20260903084845 75 103 0.0 0.0 0.00 0.00 0.00 81 1017.7
20260903084345 75 103 0.0 0.0 0.00 0.00 0.00 81 1017.8
20260903083845 75 103 0.0 0.0 0.00 0.00 0.00 81 1017.8
20260903083345 75 103 0.0 0.0 0.00 0.00 0.00 81 1017.9
20260903082845 75 103 0.0 0.0 0.00 0.00 0.00 81 1017.9
20260903082345 75 103 0.0 0.0 0.00 0.00 0.00 81 1017.7
20260903081845 75 103 0.0 0.0 0.00 0.00 0.00 81 1017.8
20260903081350 75 103 0.0 0.0 0.00 0.00 0.00 81 1017.8
20260903080857 76 103 0.0 0.0 0.00 0.00 0.00 81 1017.7
20260903080346 76 103 0.0 0.0 0.00 0.00 0.00 81 1017.6
20260903075845 76 103 0.0 0.0 0.00 0.00 0.00 81 1017.6
20260903075345 76 103 0.0 0.0 0.00 0.00 0.00 81 1017.5
20260903074845 76 103 0.0 0.0 0.00 0.00 0.00 81 1017.4
20260903074345 76 103 0.0 0.0 0.00 0.00 0.00 81 1017.3
20260903073847 76 103 0.0 0.0 0.00 0.00 0.00 81 1017.4
20260903073354 76 103 0.0 0.0 0.00 0.00 0.00 81 1017.5
20260903072902 76 103 0.0 0.0 0.00 0.00 0.00 80 1017.6
20260903072409 76 103 0.0 0.0 0.00 0.00 0.00 80 1017.7
20260903071845 76 103 0.0 0.0 0.00 0.00 0.00 80 1017.6
20260903071345 76 103 0.0 0.0 0.00 0.00 0.00 80 1017.7
20260903070845 77 103 0.0 0.0 0.00 0.00 0.00 80 1017.7
20260903070345 77 103 0.0 0.0 0.00 0.00 0.00 79 1017.7
20260903065845 77 103 0.0 0.0 0.00 0.00 0.00 79 1017.7
20260903065202 77 103 0.0 0.0 0.00 0.00 0.00 78 1017.7
20260903064710 77 103 0.0 0.0 0.00 0.00 0.00 79 1017.6
20260903064217 77 103 0.0 0.0 0.00 0.00 0.00 78 1017.5
20260903063725 77 103 0.0 0.0 0.00 0.00 0.00 78 1017.5
20260903063233 77 103 0.0 0.0 0.00 0.00 0.00 78 1017.5
20260903062656 77 103 0.0 0.0 0.00 0.00 0.00 78 1017.6
20260903062157 78 103 0.0 0.0 0.00 0.00 0.00 77 1017.5
20260903061656 78 103 0.0 0.0 0.00 0.00 0.00 77 1017.6
20260903061156 78 103 0.0 0.0 0.00 0.00 0.00 77 1017.6
20260903060656 78 103 0.0 0.0 0.00 0.00 0.00 78 1017.7
20260903060156 78 103 0.0 0.0 0.00 0.00 0.00 77 1017.6
20260903055657 78 103 0.0 0.0 0.00 0.00 0.00 77 1017.7
20260903055055 78 103 0.0 0.0 0.00 0.00 0.00 77 1017.7
20260903054602 78 103 0.0 0.0 0.00 0.00 0.00 77 1017.8
20260903054058 78 103 0.0 0.0 0.00 0.00 0.00 77 1017.8
20260903053546 79 103 0.0 0.0 0.00 0.00 0.00 76 1017.8
20260903053046 79 103 0.0 0.0 0.00 0.00 0.00 75 1017.7
20260903052549 79 103 0.0 0.0 0.00 0.00 0.00 75 1017.7
20260903052046 79 103 0.0 0.0 0.00 0.00 0.00 76 1017.7
20260903051550 79 103 0.0 0.0 0.00 0.00 0.00 75 1017.7
20260903051057 79 103 0.0 0.0 0.00 0.00 0.00 75 1017.6
20260903050546 79 103 0.0 0.0 0.00 0.00 0.00 75 1017.6
20260903050046 79 103 0.0 0.0 0.00 0.00 0.00 75 1017.7
20260903045546 80 103 0.0 0.0 0.00 0.00 0.00 74 1017.8
20260903045046 80 103 0.0 0.0 0.00 0.00 0.00 74 1017.8
20260903044545 80 103 0.0 0.0 0.00 0.00 0.00 74 1017.8
20260903044046 80 103 0.0 0.0 0.00 0.00 0.00 74 1017.8
20260903043546 80 103 0.0 0.0 0.00 0.00 0.00 74 1017.8
20260903043046 80 103 0.0 0.0 0.00 0.00 0.00 73 1017.7
20260903042545 80 103 0.0 0.0 0.00 0.00 0.00 73 1017.7
20260903042046 80 103 0.0 0.0 0.00 0.00 0.00 73 1017.7
20260903041550 80 103 0.0 0.0 0.00 0.00 0.00 73 1017.7
20260903041058 81 103 0.0 0.0 0.00 0.00 0.00 73 1017.8
20260903040546 81 103 0.0 0.0 0.00 0.00 0.00 73 1017.8
20260903040046 81 103 0.0 0.0 0.00 0.00 0.00 73 1017.8
20260903035545 81 103 0.0 0.0 0.00 0.00 0.00 73 1017.8
20260903035046 81 103 0.0 0.0 0.00 0.00 0.00 73 1017.8
20260903034546 81 103 0.0 0.0 0.00 0.00 0.00 72 1017.9
20260903034045 81 103 0.0 0.0 0.00 0.00 0.00 71 1017.9
20260903033545 82 103 0.0 0.0 0.00 0.00 0.00 71 1018.0
20260903033045 82 103 0.0 0.0 0.00 0.00 0.00 71 1018.0
20260903032545 82 103 0.0 0.0 0.00 0.00 0.00 71 1018.0
20260903032046 82 103 0.0 0.0 0.00 0.00 0.00 70 1018.0
20260903031546 83 103 0.0 0.0 0.00 0.00 0.00 69 1018.1
20260903031046 83 103 0.0 0.0 0.00 0.00 0.00 68 1018.1
20260903030546 83 103 0.0 0.0 0.00 0.00 0.00 68 1018.1
20260903030054 83 103 0.0 0.0 0.00 0.00 0.00 68 1018.1
20260903025601 83 103 0.0 0.0 0.00 0.00 0.00 68 1018.1
20260903025109 84 103 0.0 0.0 0.00 0.00 0.00 68 1018.1
20260903024616 84 103 0.0 0.0 0.00 0.00 0.00 67 1018.2
20260903024058 84 103 0.0 0.0 0.00 0.00 0.00 66 1018.2
20260903023545 84 103 0.0 0.0 0.00 0.00 0.00 66 1018.1
20260903023046 85 103 0.0 0.0 0.00 0.00 0.00 66 1018.2
20260903022545 85 103 0.0 0.0 0.00 0.00 0.00 66 1018.1
20260903022045 85 103 0.0 0.0 0.00 0.00 0.00 64 1018.0
20260903021546 85 103 0.0 0.0 0.00 0.00 0.00 64 1018.0
20260903021045 86 103 0.0 0.0 0.00 0.00 0.00 64 1018.1
20260903020546 86 103 0.0 0.0 0.00 0.00 0.00 64 1018.1
20260903020045 86 103 0.0 0.0 0.00 0.00 0.00 63 1018.0
20260903015545 86 103 0.0 0.0 0.00 0.00 0.00 62 1017.9
20260903015045 87 103 0.0 0.0 0.00 0.00 0.00 62 1017.9
20260903014545 87 103 0.0 0.0 0.00 0.00 0.00 60 1017.9
20260903014045 87 103 0.0 0.0 0.00 0.00 0.00 61 1017.8
20260903013546 88 103 0.0 0.0 0.00 0.00 0.00 60 1017.7
20260903013045 88 103 0.0 0.0 0.00 0.00 0.00 60 1017.7
20260903012545 88 103 0.0 0.0 0.00 0.00 0.00 59 1017.6
20260903012045 88 103 0.0 0.0 0.00 0.00 0.00 59 1017.6
20260903011546 89 103 0.0 0.0 0.00 0.00 0.00 59 1017.5
20260903011045 89 103 0.0 0.0 0.00 0.00 0.00 59 1017.4
20260903010545 89 103 0.0 0.0 0.00 0.00 0.00 57 1017.3
20260903010045 90 103 0.0 0.0 0.00 0.00 0.00 55 1017.3
20260903005547 90 103 0.0 0.0 0.00 0.00 0.00 54 1017.2
20260903005055 90 103 0.0 0.0 0.00 0.00 0.00 54 1017.2
20260903004602 90 103 0.0 0.0 0.00 0.00 0.00 54 1017.1
20260903004057 91 103 0.0 0.0 0.00 0.00 0.00 52 1017.0
20260903003550 91 103 0.0 0.0 0.00 0.00 0.00 53 1017.0
20260903003058 91 103 0.0 0.0 0.00 0.00 0.00 51 1017.0
20260903002546 92 103 0.0 0.0 0.00 0.00 0.00 51 1016.9
20260903002045 92 103 0.0 0.0 0.00 0.00 0.00 49 1016.8
20260903001545 92 103 0.0 0.0 0.00 0.00 0.00 49 1016.7
20260903001050 92 103 0.0 0.0 0.00 0.00 0.00 48 1016.7
20260903000557 93 103 0.0 0.0 0.00 0.00 0.00 48 1016.6
20260903000045 93 103 0.0 0.0 0.00 0.00 0.00 47 1016.6
20260902235545 93 103 0.0 0.0 0.00 0.00 0.00 47 1016.5
20260902235045 93 103 0.0 0.0 0.00 0.00 0.00 47 1016.5
20260902234546 93 103 0.0 0.0 0.00 0.00 0.00 46 1016.5
20260902234045 93 103 0.0 0.0 0.00 0.00 0.00 46 1016.5
20260902233545 93 103 0.0 0.0 0.00 0.00 0.00 46 1016.4
20260902233047 94 103 0.0 0.0 0.00 0.00 0.00 46 1016.4
20260902232555 94 103 0.0 0.0 0.00 0.00 0.00 46 1016.5
20260902232102 94 103 0.0 0.0 0.00 0.00 0.00 46 1016.5
20260902231610 94 103 0.0 0.0 0.00 0.00 0.00 46 1016.5
20260902231050 94 103 0.0 0.0 0.00 0.00 0.00 45 1016.5
20260902230557 94 103 0.0 0.0 0.00 0.00 0.00 45 1016.6
20260902230045 94 103 0.0 0.0 0.00 0.00 0.00 45 1016.6
20260902225545 94 103 0.0 0.0 0.00 0.00 0.00 45 1016.6
20260902225050 94 103 0.0 0.0 0.00 0.00 0.00 45 1016.7
20260902224557 94 103 0.0 0.0 0.00 0.00 0.00 44 1016.7
20260902224045 95 103 0.0 0.0 0.00 0.00 0.00 44 1016.7
20260902223546 95 103 0.0 0.0 0.00 0.00 0.00 44 1016.7
20260902223045 95 103 0.0 0.0 0.00 0.00 0.00 43 1016.8
20260902222546 95 103 0.0 0.0 0.00 0.00 0.00 43 1016.7
20260902222045 95 103 0.0 0.0 0.00 0.00 0.00 42 1016.7
20260902221547 95 103 0.0 0.0 0.00 0.00 0.00 41 1016.7
20260902221045 95 103 0.0 0.0 0.00 0.00 0.00 41 1016.7
20260902220545 95 103 0.0 0.0 0.00 0.00 0.00 41 1016.7
20260902220045 95 103 0.0 0.0 0.00 0.00 0.00 41 1016.8
20260902215545 95 103 0.0 0.0 0.00 0.00 0.00 41 1016.8
20260902215045 95 103 0.0 0.0 0.00 0.00 0.00 42 1016.8
20260902214545 96 103 0.0 0.0 0.00 0.00 0.00 42 1016.7
20260902214045 96 103 0.0 0.0 0.00 0.00 0.00 42 1016.8
20260902213545 96 103 0.0 0.0 0.00 0.00 0.00 42 1016.8
20260902213045 96 103 0.0 0.0 0.00 0.00 0.00 41 1016.8
20260902212545 96 103 0.0 0.0 0.00 0.00 0.00 41 1016.7
20260902212045 96 103 0.0 0.0 0.00 0.00 0.00 41 1016.8
20260902211548 96 103 0.0 0.0 0.00 0.00 0.00 42 1016.8
20260902211045 96 103 0.0 0.0 0.00 0.00 0.00 41 1016.8
20260902210545 96 103 0.0 0.0 0.00 0.00 0.00 40 1016.9
20260902210045 96 103 0.0 0.0 0.00 0.00 0.00 41 1016.9
20260902205545 96 103 0.0 0.0 0.00 0.00 0.00 40 1017.0
20260902205045 96 103 0.0 0.0 0.00 0.00 0.00 41 1017.0
20260902204545 96 103 0.0 0.0 0.00 0.00 0.00 41 1017.0
20260902204045 96 103 0.0 0.0 0.00 0.00 0.00 42 1017.0
20260902203546 96 103 0.0 0.0 0.00 0.00 0.00 42 1017.0
20260902203045 96 103 0.0 0.0 0.00 0.00 0.00 41 1017.0
20260902202545 96 103 0.0 0.0 0.00 0.00 0.00 42 1017.1
20260902202050 96 103 0.0 0.0 0.00 0.00 0.00 42 1017.2
20260902201557 96 103 0.0 0.0 0.00 0.00 0.00 42 1017.2
20260902201045 96 103 0.0 0.0 0.00 0.00 0.00 41 1017.4
20260902200146 97 103 0.0 0.0 0.00 0.00 0.00 41 1017.5
20260902195646 97 103 0.0 0.0 0.00 0.00 0.00 40 1017.5
20260902195146 97 103 0.0 0.0 0.00 0.00 0.00 40 1017.5
20260902194646 97 103 0.0 0.0 0.00 0.00 0.00 39 1017.6
20260902194151 97 103 0.0 0.0 0.00 0.00 0.00 39 1017.6
20260902193658 98 103 0.0 0.0 0.00 0.00 0.00 39 1017.7